SCP
0 0 0 0 0 0 0 0 0 0 0 0 0 0 0 0 0 0 0 0 0 0 0 0 0 0 0 0 0 0 0 0 0 0 0 0 0 0 0 0 0 -0 -0 0 0 0 0 -0 0 -0 0 -0 -0 -0
0 0 0 0 0 0 0 0 0 0 0 0 0 0 0 0 0 0 0 0 0 0 0 0 0 0 0 0 0 0 0 0 0 0 0 0 0 0 -0 0 0 0 0 0 0 0 -0 -0 0 0 0 -0 -0 0
0 0 0 0 0 0 0 0 0 0 0 0 0 0 0 0 0 0 0 0 0 0 0 0 0 0 0 0 0 0 0 0 0 0 0 0 0 0 -0 0 0 0 0 0 0 0 -0 -0 0 -0 -0 0 0 0
0 0 0 0 0 0 0 0 0 0 0 0 0 0 0 0 0 0 0 0 0 0 0 0 0 0 0 0 0 0 0 0 0 0 0 0 0 0 0 0 0 0 0 0 0 0 0 -0 -0 0 0 0 0 0
0 0 0 0 0 0 0 0 0 0 0 0 0 0 0 0 0 0 0 0 0 0 0 0 0 0 0 0 0 0 0 0 0 0 0 0 0 0 0 0 0 0 0 -0 0 0 0 -0 -0 -0 0 0 0 0
0 0 0 0 0 0 0 0 0 0 0 0 0 0 0 0 0 0 0 0 0 0 0 0 0 0 -0 -0 0 0 0 0 0 0 0 0 0 0 -0 0 0 0 0 0 0 0 0 0 0 0 0 0 0 0
0 0 0 0 0 0 0 0 0 0 0 0 0 0 0 0 0 0 0 0 0 0 0 0 0 0 0 0 0 0 0 0 0 0 0 0 0 0 0 0 0 0 0 0 0 0 -0 -0 0 0 0 0 0 0
0 0 0 0 0 0 0 0 0 0 0 0 0 0 0 0 0 0 0 0 0 0 0 0 0 0 0 0 0 0 0 0 0 0 0 0 0 0 0 -0 0 0 -0 0 -0 0 -0 -0 0 0 0 0 0 0
0 0 0 0 0 0 0 0 0 0 0 0 0 0 0 0 0 0 0 0 0 0 0 0 0 0 0 0 0 0 0 0 0 0 0 0 0 0 0 0 0 0 0 -0 -0 -0 -0 -0 0 0 0 0 0 0
0 0 0 0 0 0 0 0 0 0 0 0 0 0 0 0 0 0 0 0 0 0 0 0 0 0 -0 -0 0 0 0 0 0 0 0 0 0 0 0 0 0 0 -0 -0 -0 -0 0 -0 -0 0 0 0 0 0
0 0 0 0 0 0 0 0 0 0 0 0 0 0 0 0 0 0 0 0 0 0 0 0 0 0 0 0 0 0 0 0 0 0 0 0 0 0 0 0 0 0 -0 -0 0 -0 0 -0 -0 0 0 0 0 0
0 0 0 0 0 0 0 0 0 0 0 0 0 0 0 0 0 0 0 0 0 0 0 0 0 0 0 0 0 0 0 0 0 0 0 0 0 0 0 0 0 0 0 0 0 -0 0 0 -0 0 0 0 0 0
0 0 0 0 0 0 0 0 0 0 0 0 0 0 0 0 0 0 0 0 0 0 0 0 -0 -0 0 0 -0 0 0 0 0 0 0 0 0 0 0 0 0 0 -0 0 0 0 -0 0 -0 -0 0 0 0 0
0 0 0 0 0 0 0 0 0 0 0 0 0 0 0 0 0 0 0 0 0 0 -0 0 -0 -0 0 0 0 -0 0 0 0 0 0 0 0 0 0 0 0 0 -0 0 0 0 -0 -0 -0 -0 0 0 0 0
0 0 0 0 0 0 0 0 0 0 0 0 0 0 0 0 0 0 0 0 -0 -0 0 0 0 -0 -0 0 0 -0 0 0 0 0 0 0 0 0 0 0 0 0 0 -0 0 0 0 0 -0 -0 0 0 0 0
0 0 0 0 0 0 0 0 0 0 0 0 0 0 0 0 0 0 0 0 -0 -0 -0 -0 -0 -0 -0 0 0 0 0 0 0 0 0 0 0 0 0 0 0 0 0 -0 0 0 0 0 0 0 0 -0 0 0
0 0 0 0 0 0 0 0 0 0 0 0 0 0 0 -0 -0 -0 0 0 -0 0 -0 -0 -0 -0 0 0 0 0 0 0 -0 0 0 0 0 0 0 0 0 0 0 0 -0 -0 0 0 0 0 0 0 0 0
0 0 0 0 0 0 0 0 0 0 0 0 0 0 0 0 0 0 0 0 0 0 0 -0 -0 -0 0 0 0 0 -0 -0 -0 0 0 0 0 0 0 0 0 0 0 -0 -0 -0 0 0 0 0 0 0 0 0
0 0 0 0 0 0 0 0 0 0 0 0 0 0 0 0 -0 -0 -0 0 0 0 0 -0 -0 0 0 0 0 0 0 0 0 0 0 0 0 0 0 0 0 -0 0 -0 -0 -0 -0 -0 -0 -0 0 0 0 0
0 0 0 0 0 0 0 0 0 0 0 0 0 0 0 0 -0 0 0 0 0 0 -0 0 0 0 0 0 0 0 0 0 -0 0 0 0 0 0 0 0 0 0 0 -0 -0 -0 -0 -0 -0 0 0 0 0 0
0 0 0 0 0 0 0 0 0 0 0 0 0 0 0 0 0 -0 -0 0 0 0 0 0 0 0 -0 0 -0 0 0 -0 -0 0 0 0 0 0 0 0 0 0 0 0 0 0 -0 -0 -0 -0 0 0 0 0
0 0 0 0 0 0 0 0 0 0 0 0 -0 -0 -0 -0 0 0 0 0 0 0 0 0 0 0 0 0 0 0 -0 0 0 0 0 0 0 0 0 0 0 0 0 0 0 0 0 0 0 -0 0 0 -0 -0
0 0 0 0 0 0 0 0 0 0 0 -0 -0 0 0 0 0 0 0 0 0 0 0 0 0 0 -0 -0 -0 -0 0 0 0 0 0 0 0 0 0 0 0 0 0 0 0 -0 -0 -0 0 0 0 0 0 0
0 0 0 0 0 0 0 0 0 0 0 0 0 0 0 0 0 0 0 0 0 0 0 0 0 0 0 0 0 -0 -0 -0 0 0 0 -0 -0 0 0 0 0 0 0 0 0 0 0 -0 -0 0 0 0 0 0
0 0 0 0 0 0 0 0 0 0 0 0 0 0 0 -0 0 0 0 0 0 0 0 0 0 0 0 0 0 -0 -0 -0 0 0 0 0 0 0 0 0 0 0 0 0 0 0 0 0 -0 -0 0 0 0 0
0 0 0 0 0 0 0 0 0 0 0 0 0 0 0 0 0 0 0 0 0 0 0 0 0 -0 0 0 0 0 0 0 0 0 0 0 0 0 0 0 0 0 0 0 0 -0 -0 -0 0 0 0 0 0 0
0 0 0 0 0 0 0 -0 -0 0 0 0 0 0 0 0 0 0 0 0 0 0 0 0 0 0 0 0 0 0 0 0 0 0 0 -0 0 0 0 0 0 0 0 0 0 -0 -0 -0 -0 0 0 0 0 0
0 0 0 0 0 0 -0 -0 0 0 0 -0 0 0 0 0 0 -0 0 0 0 0 0 0 0 0 0 0 0 0 0 0 -0 0 0 0 0 0 0 0 0 0 0 0 0 0 0 -0 -0 0 0 0 0 0
0 -0 -0 0 0 0 0 -0 -0 0 0 0 0 0 0 0 0 0 -0 0 0 0 0 0 0 0 0 0 0 0 -0 0 0 -0 0 0 0 0 0 0 0 0 0 0 0 0 -0 -0 0 -0 0 0 0 0
0 0 0 0 0 0 0 -0 -0 -0 -0 -0 0 0 0 0 0 0 0 0 -0 0 0 0 0 0 0 0 0 -0 0 -0 0 0 0 0 0 0 0 0 0 0 0 0 0 0 0 0 0 0 0 0 0 0
0 0 0 0 0 0 -0 0 -0 -0 -0 0 -0 0 0 0 0 0 0 -0 0 0 0 -0 -0 -0 0 0 -0 -0 -0 -0 -0 -0 -0 0 0 0 0 0 0 0 0 0 0 0 0 0 0 0 0 0 0 0
0 0 0 0 0 -0 0 0 0 0 0 0 0 0 0 0 0 0 0 0 0 0 -0 0 0 0 -0 -0 -0 -0 -0 -0 -0 -0 0 0 0 0 0 0 0 0 0 0 0 0 0 0 0 -0 -0 -0 0 0
0 0 0 0 -0 0 0 0 0 0 0 0 0 0 0 0 0 0 -0 0 0 0 0 0 0 0 -0 0 -0 -0 -0 -0 -0 -0 -0 -0 0 0 0 0 0 0 0 0 0 0 0 0 -0 -0 -0 0 0 0
Wind_Speed_500mb
42 44 44 44 44 44 46 45 45 44 44 43 36 36 35 38 36 36 41 38 33 18 60 48 19 44 64 47 10 32 22 12 10 9 5 7 6 7 7 12 7 9 11 7 9 8 8 41 16 12 22 56 59 76
41 42 42 43 43 43 43 45 44 43 43 43 40 36 37 35 38 36 42 38 30 41 54 79 90 52 51 48 40 12 23 33 6 5 6 5 6 7 10 7 2 5 1 7 4 8 12 47 25 51 58 57 51 78
39 41 42 43 44 44 42 45 43 44 43 43 42 37 36 37 35 40 43 42 38 29 51 30 54 27 36 28 27 17 11 3 4 10 6 4 9 4 6 6 5 4 4 5 12 3 21 45 46 59 65 60 60 64
40 40 43 43 44 45 44 45 46 46 45 45 44 38 37 38 36 33 28 29 32 19 13 29 35 65 50 44 46 50 34 36 19 21 9 7 6 7 6 9 6 5 9 9 13 9 40 2 52 65 56 53 50 64
40 41 43 43 44 44 44 46 48 46 47 48 45 40 35 37 34 23 25 32 34 18 13 34 74 8 26 22 26 49 41 24 21 5 7 7 9 6 7 5 3 5 3 4 6 27 14 30 49 50 44 42 47 62
40 40 42 43 42 44 41 45 46 45 47 45 41 35 33 23 20 21 9 8 5 19 15 10 35 54 14 17 26 22 54 33 25 8 10 13 27 4 5 5 5 11 11 15 10 34 28 31 24 32 32 32 47 62
38 39 39 41 41 40 39 43 44 44 46 43 31 26 23 18 19 15 11 12 11 18 9 15 14 17 18 8 24 19 31 32 21 11 14 16 14 13 5 4 7 9 8 4 18 20 14 21 19 20 22 26 47 56
39 39 37 38 39 36 38 39 40 41 41 31 23 24 23 24 29 29 17 19 20 17 10 7 11 17 10 24 14 32 26 20 16 14 17 11 13 9 6 12 3 9 12 6 14 10 10 7 16 16 18 26 47 59
37 41 34 35 37 35 34 36 35 33 30 26 20 26 31 15 7 10 14 20 18 18 8 9 7 9 14 8 15 18 20 5 12 8 8 4 5 6 3 22 20 11 7 4 7 7 8 10 16 17 18 25 41 48
37 36 31 31 32 32 31 31 26 20 27 26 23 10 7 8 17 25 5 4 10 12 13 12 13 12 24 17 6 3 8 7 7 14 9 7 3 25 19 20 17 12 8 3 10 2 3 7 11 18 22 28 35 42
36 32 29 28 30 31 29 29 24 21 21 15 9 7 15 32 16 6 6 9 10 9 14 17 26 17 17 9 6 12 5 6 2 7 8 3 3 9 16 17 14 9 8 4 6 2 2 7 13 19 21 27 34 40
35 31 29 28 29 30 28 25 22 13 12 19 27 39 22 7 8 6 6 7 10 9 17 12 17 28 16 8 12 10 9 8 7 7 4 2 6 28 22 17 8 9 8 11 6 8 9 13 18 20 24 27 33 38
35 33 31 30 31 29 25 23 20 19 24 28 7 8 7 7 8 10 10 8 8 13 4 13 10 14 7 4 14 6 6 8 6 4 5 5 27 24 20 13 8 9 9 10 11 8 10 16 21 27 32 31 34 41
37 35 32 31 31 27 24 20 17 16 8 8 8 9 9 9 11 13 13 11 13 12 28 12 7 8 6 9 8 9 9 5 6 6 4 7 30 27 19 13 13 14 4 11 9 11 15 19 25 26 26 33 42 42
38 39 36 35 30 28 26 21 21 16 8 9 10 10 14 32 34 39 39 20 21 32 13 10 6 3 3 3 8 12 5 7 5 5 7 32 32 27 24 19 14 9 11 16 15 12 15 24 28 28 28 41 38 38
38 41 38 29 19 15 11 9 11 14 10 12 15 9 31 28 29 28 39 38 26 12 11 3 3 6 10 7 12 8 6 4 6 7 39 43 36 29 26 23 18 17 17 17 16 17 19 27 35 33 26 28 30 45
36 42 36 27 19 19 16 15 10 15 15 13 13 32 47 51 54 62 53 51 17 8 4 3 6 9 9 7 9 2 5 2 30 40 42 40 38 35 30 27 22 17 21 20 23 23 22 27 36 36 35 29 29 43
48 41 14 14 12 9 16 23 13 15 17 27 18 36 41 43 49 56 53 40 15 6 7 6 11 7 8 8 11 4 2 9 16 52 48 38 38 36 34 33 28 21 20 23 22 24 27 28 29 27 33 31 30 37
47 38 26 20 28 26 10 12 24 13 25 30 46 57 56 65 68 68 68 45 22 17 7 7 9 7 7 9 10 25 13 27 24 44 42 37 40 39 35 32 30 28 23 21 25 25 27 24 23 29 31 34 32 33
52 44 36 34 31 26 14 14 16 17 14 27 54 61 58 56 60 60 52 34 33 14 12 9 11 24 16 37 38 18 10 16 29 48 44 43 42 43 40 35 33 31 29 29 24 22 24 25 25 26 25 29 31 29
50 50 48 51 46 33 9 11 16 15 17 21 38 53 51 48 52 50 48 43 34 13 10 34 43 41 29 31 33 30 16 23 35 47 49 48 51 48 43 36 35 32 34 31 33 31 33 31 32 32 32 36 38 34
49 38 39 43 21 16 17 23 16 14 16 28 39 28 22 37 45 53 44 33 22 38 41 43 46 38 32 34 26 27 15 6 28 38 46 47 52 48 44 44 39 40 36 28 35 31 32 29 34 28 32 19 23 26
39 42 21 16 11 19 17 33 24 22 10 11 20 16 13 18 29 26 9 20 32 50 55 55 57 53 32 44 37 46 20 11 16 35 46 49 48 45 45 40 41 38 34 33 29 29 24 28 36 30 33 31 30 31
46 26 12 17 24 12 16 14 13 11 19 18 4 11 12 8 7 13 9 21 42 43 53 55 51 46 33 39 13 45 38 21 14 27 29 47 47 45 43 40 39 37 32 34 33 31 27 31 32 30 31 31 32 29
13 17 13 16 21 16 13 11 14 12 13 16 28 16 6 5 6 10 8 19 35 40 51 48 45 44 38 34 33 33 35 26 30 29 21 34 40 41 42 38 34 34 32 36 34 33 32 34 37 35 31 33 39 32
9 23 21 19 14 14 13 22 20 26 20 22 7 9 7 5 6 10 4 10 15 26 23 31 32 30 22 20 24 10 24 21 25 29 23 24 34 45 44 40 40 36 34 35 34 35 35 33 31 30 35 33 34 33
9 12 24 25 16 13 9 10 13 10 9 9 6 6 6 7 8 5 25 8 11 14 8 13 5 15 15 26 25 17 11 18 4 12 13 13 24 24 32 39 42 41 36 36 31 35 38 33 26 31 36 31 32 37
14 11 9 16 22 18 6 5 8 9 7 8 2 7 5 3 4 15 8 2 7 13 15 16 21 16 26 19 17 21 37 27 11 16 19 15 21 14 17 25 26 32 32 35 32 31 34 31 23 35 37 34 33 32
12 15 15 20 20 13 14 10 9 14 18 10 4 5 2 9 25 26 23 12 9 9 8 10 10 12 16 16 35 28 24 11 26 23 16 11 7 6 13 17 24 32 36 36 37 33 30 31 27 34 35 33 29 21
12 17 9 11 7 6 6 10 20 26 34 16 3 3 7 16 34 18 15 25 21 6 11 20 22 18 45 57 49 25 25 25 17 14 11 6 9 15 15 11 22 29 36 36 38 36 32 30 29 33 33 33 33 31
5 13 9 12 10 18 36 23 19 26 29 18 11 12 11 7 17 25 16 26 16 7 19 25 29 33 34 29 11 25 30 26 22 14 8 7 4 8 9 18 19 31 37 42 40 37 41 41 38 37 37 34 31 29
22 12 7 5 6 9 3 2 14 17 18 25 26 22 22 11 7 12 28 27 18 13 22 13 14 39 24 33 27 26 18 21 16 5 9 15 21 26 26 21 20 25 39 43 49 39 45 47 40 41 38 35 33 29
10 14 12 7 7 5 4 4 4 9 11 11 15 17 16 17 10 14 13 21 16 14 11 28 33 39 25 25 23 19 13 12 15 18 23 25 16 10 7 11 17 19 34 39 40 34 34 31 36 37 32 40 38 36
Wind_Direction_500mb
301 303 306 309 311 314 316 318 320 321 319 321 324 325 332 330 314 301 291 290 265 248 287 293 270 291 292 292 261 304 336 358 346 9 333 345 316 294 313 316 341 316 332 336 325 288 323 359 342 8 294 302 307 310
301 303 307 309 311 314 317 318 322 323 322 315 314 311 313 316 319 294 289 290 281 248 270 295 292 288 282 283 259 262 276 312 322 2 1 311 283 277 330 299 286 337 265 298 260 279 348 345 298 319 325 313 319 320
300 303 306 307 309 311 316 317 319 320 321 318 311 312 306 307 309 298 285 279 284 280 296 299 305 297 305 286 262 235 268 236 5 356 281 267 266 306 305 312 289 354 89 277 330 106 341 318 338 332 341 332 330 342
299 302 303 306 308 311 315 316 316 317 317 316 313 311 307 305 302 291 282 277 276 280 271 281 296 300 295 275 236 230 251 269 291 299 264 252 243 228 253 261 215 202 307 299 259 306 324 222 337 335 349 349 5 15
299 302 304 307 309 312 315 316 314 318 317 314 313 310 307 308 307 305 282 280 281 266 291 299 312 287 296 287 238 222 226 239 251 252 247 261 255 289 243 252 298 147 233 311 289 317 288 296 334 348 358 6 28 25
298 301 304 308 311 312 315 314 314 317 316 313 311 307 308 323 321 311 288 293 278 247 298 305 301 302 307 223 224 239 218 236 222 232 254 260 248 179 280 259 171 194 252 246 269 314 319 336 340 1 16 28 53 59
296 299 303 306 309 314 318 315 313 318 319 317 316 313 328 312 297 277 271 298 308 212 267 291 280 287 312 249 210 214 221 217 223 244 227 243 253 168 267 267 195 225 176 221 329 338 323 1 354 29 47 64 80 83
295 295 298 303 306 315 319 316 316 320 320 320 330 325 317 302 294 298 303 290 273 215 247 272 276 287 327 220 209 211 208 223 227 227 249 233 137 183 269 249 181 123 129 48 357 7 346 37 38 61 74 88 88 89
293 292 296 302 305 311 318 320 322 329 339 328 321 312 301 299 299 300 293 290 246 220 265 253 275 295 299 10 319 224 213 211 241 218 235 220 191 213 239 66 80 67 112 127 25 14 56 95 74 83 100 99 97 97
289 289 296 299 305 309 316 320 316 340 338 341 318 301 296 330 317 308 296 201 195 224 236 251 240 257 303 307 288 246 196 158 229 219 209 175 139 99 94 85 96 95 112 68 201 309 42 106 105 112 107 114 115 114
282 286 289 294 303 313 316 322 311 322 339 339 306 280 307 311 299 247 242 213 201 244 224 241 230 238 264 225 260 236 232 268 273 259 160 257 103 111 121 93 87 93 89 69 35 115 124 136 133 127 127 125 127 129
278 280 283 286 296 307 317 319 302 289 274 306 292 294 291 251 233 256 237 203 210 250 202 220 239 218 262 245 229 250 203 209 247 178 91 225 119 133 130 115 75 96 100 103 75 92 110 132 143 145 138 140 134 134
274 275 276 281 289 300 311 308 297 288 285 298 273 261 246 220 238 220 217 207 232 210 268 312 24 276 239 255 263 266 289 232 203 102 201 85 128 117 132 125 116 98 120 121 112 96 125 134 139 148 143 141 139 128
271 271 271 276 286 299 301 295 294 275 295 255 245 241 225 212 232 213 240 299 313 297 314 268 240 298 338 28 311 265 228 90 257 181 97 147 135 135 138 138 136 143 117 141 140 112 133 135 142 142 143 143 139 134
272 275 272 271 285 287 285 282 270 238 244 257 250 241 236 238 260 276 286 299 337 347 338 308 344 318 254 177 253 248 197 224 44 108 136 138 142 147 145 147 144 138 124 140 146 141 142 146 141 138 142 137 131 134
269 278 272 281 272 273 263 282 263 220 236 235 240 251 271 279 281 321 321 318 321 298 342 30 313 308 227 231 236 212 237 104 157 121 133 150 145 153 155 155 149 142 135 135 150 147 149 155 148 141 157 144 145 142
267 255 272 280 269 264 268 254 221 216 231 229 232 239 258 276 279 288 290 295 318 354 27 19 281 241 262 259 259 73 88 31 131 140 147 165 156 154 154 145 142 142 140 133 137 142 140 153 156 145 155 159 153 155
249 257 231 204 209 245 252 228 229 238 242 232 239 242 247 254 269 273 281 279 282 208 165 206 295 247 281 294 10 341 3 118 160 146 154 163 156 153 152 152 150 153 153 145 138 139 147 149 154 160 154 150 162 163
253 257 256 225 218 228 225 235 218 253 237 241 239 246 248 256 261 265 276 272 264 208 183 211 243 253 238 240 322 334 80 140 163 146 157 164 154 153 151 149 149 154 159 161 161 155 147 147 145 151 157 156 164 165
250 239 223 210 214 207 218 237 224 243 252 244 243 247 251 254 259 259 253 254 220 189 190 222 219 229 276 307 310 260 178 248 194 151 159 164 164 159 156 162 165 157 158 167 173 167 161 159 169 167 168 176 173 165
244 238 219 214 230 223 244 246 237 245 254 248 257 248 250 252 246 249 254 244 218 206 227 231 250 262 260 245 251 251 204 274 215 165 159 161 174 174 174 174 174 171 175 178 185 181 181 188 182 186 187 189 185 184
220 215 197 201 201 212 243 235 243 278 272 270 289 282 270 255 245 241 238 227 230 235 234 235 243 244 241 248 276 239 263 71 149 170 165 167 171 185 186 185 185 192 195 197 195 189 193 198 196 191 206 201 192 185
191 193 158 146 170 211 253 229 225 235 242 258 263 302 248 245 247 236 242 234 238 236 240 241 235 232 224 229 245 233 213 222 179 167 178 179 179 185 187 188 189 189 191 195 200 199 195 195 202 200 197 200 205 206
160 153 157 183 197 235 233 219 224 243 234 229 240 258 263 243 229 194 241 248 244 236 226 232 236 238 222 198 216 190 208 196 227 155 184 183 177 183 188 194 200 201 202 201 194 202 204 198 191 190 197 195 198 214
133 185 207 200 206 224 233 208 205 227 235 235 234 233 256 286 233 211 227 250 239 219 214 219 215 219 220 202 219 223 197 206 184 184 188 178 177 184 189 192 197 203 197 193 186 192 194 198 202 200 197 201 199 196
204 201 197 202 217 210 213 241 251 232 232 246 246 263 268 214 250 250 271 337 259 199 200 186 199 218 207 192 147 173 167 195 184 187 186 196 189 187 190 191 194 193 199 204 193 192 198 200 206 205 196 202 202 201
236 238 206 218 231 263 266 284 272 275 236 225 221 196 241 235 245 44 325 257 98 134 170 185 217 179 122 158 156 172 164 175 122 198 182 185 198 209 204 200 192 193 193 199 199 199 202 203 207 190 196 203 199 197
251 280 235 255 233 220 241 258 210 224 241 210 223 246 239 271 34 160 110 160 105 108 104 128 89 107 140 179 155 130 115 166 189 165 145 124 127 150 177 190 208 202 198 202 202 199 205 207 202 188 198 203 204 201
243 254 272 265 247 231 223 231 224 224 220 210 226 280 253 60 44 67 64 66 87 107 188 187 153 166 177 147 156 133 176 267 167 129 156 195 213 185 189 188 203 204 200 197 202 203 205 203 197 190 196 200 208 202
242 221 232 254 227 257 259 255 273 274 279 260 82 44 94 65 48 60 106 48 21 23 99 111 102 124 135 133 138 163 132 147 161 152 163 187 231 244 230 217 214 210 201 199 198 195 194 192 184 190 195 204 212 220
223 189 242 220 234 233 234 229 237 245 231 214 128 92 77 98 71 55 51 22 12 261 125 112 131 158 149 146 133 136 120 117 117 126 137 119 90 207 242 230 234 214 209 197 193 197 193 191 190 198 206 210 216 216
188 231 254 259 261 191 232 264 97 92 78 68 52 43 29 25 70 51 22 23 28 89 152 130 174 169 169 125 132 133 139 131 118 85 331 309 281 267 241 220 238 230 204 197 180 196 200 196 206 202 214 217 222 232
216 229 201 209 238 184 241 236 118 95 59 48 33 19 21 19 53 21 40 16 20 60 109 99 98 108 122 124 110 117 132 111 73 52 44 39 34 39 93 180 205 190 182 186 186 189 200 225 206 213 230 224 224 226
Wind_Speed_850mb
42 44 44 44 44 44 46 45 45 44 44 43 36 36 35 38 36 36 41 38 33 18 60 48 19 44 64 47 10 32 22 12 10 9 5 7 6 7 7 12 7 9 11 7 9 8 8 41 16 12 22 56 59 76
41 42 42 43 43 43 43 45 44 43 43 43 40 36 37 35 38 36 42 38 30 41 54 79 90 52 51 48 40 12 23 33 6 5 6 5 6 7 10 7 2 5 1 7 4 8 12 47 25 51 58 57 51 78
39 41 42 43 44 44 42 45 43 44 43 43 42 37 36 37 35 40 43 42 38 29 51 30 54 27 36 28 27 17 11 3 4 10 6 4 9 4 6 6 5 4 4 5 12 3 21 45 46 59 65 60 60 64
40 40 43 43 44 45 44 45 46 46 45 45 44 38 37 38 36 33 28 29 32 19 13 29 35 65 50 44 46 50 34 36 19 21 9 7 6 7 6 9 6 5 9 9 13 9 40 2 52 65 56 53 50 64
40 41 43 43 44 44 44 46 48 46 47 48 45 40 35 37 34 23 25 32 34 18 13 34 74 8 26 22 26 49 41 24 21 5 7 7 9 6 7 5 3 5 3 4 6 27 14 30 49 50 44 42 47 62
40 40 42 43 42 44 41 45 46 45 47 45 41 35 33 23 20 21 9 8 5 19 15 10 35 54 14 17 26 22 54 33 25 8 10 13 27 4 5 5 5 11 11 15 10 34 28 31 24 32 32 32 47 62
38 39 39 41 41 40 39 43 44 44 46 43 31 26 23 18 19 15 11 12 11 18 9 15 14 17 18 8 24 19 31 32 21 11 14 16 14 13 5 4 7 9 8 4 18 20 14 21 19 20 22 26 47 56
39 39 37 38 39 36 38 39 40 41 41 31 23 24 23 24 29 29 17 19 20 17 10 7 11 17 10 24 14 32 26 20 16 14 17 11 13 9 6 12 3 9 12 6 14 10 10 7 16 16 18 26 47 59
37 41 34 35 37 35 34 36 35 33 30 26 20 26 31 15 7 10 14 20 18 18 8 9 7 9 14 8 15 18 20 5 12 8 8 4 5 6 3 22 20 11 7 4 7 7 8 10 16 17 18 25 41 48
37 36 31 31 32 32 31 31 26 20 27 26 23 10 7 8 17 25 5 4 10 12 13 12 13 12 24 17 6 3 8 7 7 14 9 7 3 25 19 20 17 12 8 3 10 2 3 7 11 18 22 28 35 42
36 32 29 28 30 31 29 29 24 21 21 15 9 7 15 32 16 6 6 9 10 9 14 17 26 17 17 9 6 12 5 6 2 7 8 3 3 9 16 17 14 9 8 4 6 2 2 7 13 19 21 27 34 40
35 31 29 28 29 30 28 25 22 13 12 19 27 39 22 7 8 6 6 7 10 9 17 12 17 28 16 8 12 10 9 8 7 7 4 2 6 28 22 17 8 9 8 11 6 8 9 13 18 20 24 27 33 38
35 33 31 30 31 29 25 23 20 19 24 28 7 8 7 7 8 10 10 8 8 13 4 13 10 14 7 4 14 6 6 8 6 4 5 5 27 24 20 13 8 9 9 10 11 8 10 16 21 27 32 31 34 41
37 35 32 31 31 27 24 20 17 16 8 8 8 9 9 9 11 13 13 11 13 12 28 12 7 8 6 9 8 9 9 5 6 6 4 7 30 27 19 13 13 14 4 11 9 11 15 19 25 26 26 33 42 42
38 39 36 35 30 28 26 21 21 16 8 9 10 10 14 32 34 39 39 20 21 32 13 10 6 3 3 3 8 12 5 7 5 5 7 32 32 27 24 19 14 9 11 16 15 12 15 24 28 28 28 41 38 38
38 41 38 29 19 15 11 9 11 14 10 12 15 9 31 28 29 28 39 38 26 12 11 3 3 6 10 7 12 8 6 4 6 7 39 43 36 29 26 23 18 17 17 17 16 17 19 27 35 33 26 28 30 45
36 42 36 27 19 19 16 15 10 15 15 13 13 32 47 51 54 62 53 51 17 8 4 3 6 9 9 7 9 2 5 2 30 40 42 40 38 35 30 27 22 17 21 20 23 23 22 27 36 36 35 29 29 43
48 41 14 14 12 9 16 23 13 15 17 27 18 36 41 43 49 56 53 40 15 6 7 6 11 7 8 8 11 4 2 9 16 52 48 38 38 36 34 33 28 21 20 23 22 24 27 28 29 27 33 31 30 37
47 38 26 20 28 26 10 12 24 13 25 30 46 57 56 65 68 68 68 45 22 17 7 7 9 7 7 9 10 25 13 27 24 44 42 37 40 39 35 32 30 28 23 21 25 25 27 24 23 29 31 34 32 33
52 44 36 34 31 26 14 14 16 17 14 27 54 61 58 56 60 60 52 34 33 14 12 9 11 24 16 37 38 18 10 16 29 48 44 43 42 43 40 35 33 31 29 29 24 22 24 25 25 26 25 29 31 29
50 50 48 51 46 33 9 11 16 15 17 21 38 53 51 48 52 50 48 43 34 13 10 34 43 41 29 31 33 30 16 23 35 47 49 48 51 48 43 36 35 32 34 31 33 31 33 31 32 32 32 36 38 34
49 38 39 43 21 16 17 23 16 14 16 28 39 28 22 37 45 53 44 33 22 38 41 43 46 38 32 34 26 27 15 6 28 38 46 47 52 48 44 44 39 40 36 28 35 31 32 29 34 28 32 19 23 26
39 42 21 16 11 19 17 33 24 22 10 11 20 16 13 18 29 26 9 20 32 50 55 55 57 53 32 44 37 46 20 11 16 35 46 49 48 45 45 40 41 38 34 33 29 29 24 28 36 30 33 31 30 31
46 26 12 17 24 12 16 14 13 11 19 18 4 11 12 8 7 13 9 21 42 43 53 55 51 46 33 39 13 45 38 21 14 27 29 47 47 45 43 40 39 37 32 34 33 31 27 31 32 30 31 31 32 29
13 17 13 16 21 16 13 11 14 12 13 16 28 16 6 5 6 10 8 19 35 40 51 48 45 44 38 34 33 33 35 26 30 29 21 34 40 41 42 38 34 34 32 36 34 33 32 34 37 35 31 33 39 32
9 23 21 19 14 14 13 22 20 26 20 22 7 9 7 5 6 10 4 10 15 26 23 31 32 30 22 20 24 10 24 21 25 29 23 24 34 45 44 40 40 36 34 35 34 35 35 33 31 30 35 33 34 33
9 12 24 25 16 13 9 10 13 10 9 9 6 6 6 7 8 5 25 8 11 14 8 13 5 15 15 26 25 17 11 18 4 12 13 13 24 24 32 39 42 41 36 36 31 35 38 33 26 31 36 31 32 37
14 11 9 16 22 18 6 5 8 9 7 8 2 7 5 3 4 15 8 2 7 13 15 16 21 16 26 19 17 21 37 27 11 16 19 15 21 14 17 25 26 32 32 35 32 31 34 31 23 35 37 34 33 32
12 15 15 20 20 13 14 10 9 14 18 10 4 5 2 9 25 26 23 12 9 9 8 10 10 12 16 16 35 28 24 11 26 23 16 11 7 6 13 17 24 32 36 36 37 33 30 31 27 34 35 33 29 21
12 17 9 11 7 6 6 10 20 26 34 16 3 3 7 16 34 18 15 25 21 6 11 20 22 18 45 57 49 25 25 25 17 14 11 6 9 15 15 11 22 29 36 36 38 36 32 30 29 33 33 33 33 31
5 13 9 12 10 18 36 23 19 26 29 18 11 12 11 7 17 25 16 26 16 7 19 25 29 33 34 29 11 25 30 26 22 14 8 7 4 8 9 18 19 31 37 42 40 37 41 41 38 37 37 34 31 29
22 12 7 5 6 9 3 2 14 17 18 25 26 22 22 11 7 12 28 27 18 13 22 13 14 39 24 33 27 26 18 21 16 5 9 15 21 26 26 21 20 25 39 43 49 39 45 47 40 41 38 35 33 29
10 14 12 7 7 5 4 4 4 9 11 11 15 17 16 17 10 14 13 21 16 14 11 28 33 39 25 25 23 19 13 12 15 18 23 25 16 10 7 11 17 19 34 39 40 34 34 31 36 37 32 40 38 36
Wind_Direction_850mb
301 303 306 309 311 314 316 318 320 321 319 321 324 325 332 330 314 301 291 290 265 248 287 293 270 291 292 292 261 304 336 358 346 9 333 345 316 294 313 316 341 316 332 336 325 288 323 359 342 8 294 302 307 310
301 303 307 309 311 314 317 318 322 323 322 315 314 311 313 316 319 294 289 290 281 248 270 295 292 288 282 283 259 262 276 312 322 2 1 311 283 277 330 299 286 337 265 298 260 279 348 345 298 319 325 313 319 320
300 303 306 307 309 311 316 317 319 320 321 318 311 312 306 307 309 298 285 279 284 280 296 299 305 297 305 286 262 235 268 236 5 356 281 267 266 306 305 312 289 354 89 277 330 106 341 318 338 332 341 332 330 342
299 302 303 306 308 311 315 316 316 317 317 316 313 311 307 305 302 291 282 277 276 280 271 281 296 300 295 275 236 230 251 269 291 299 264 252 243 228 253 261 215 202 307 299 259 306 324 222 337 335 349 349 5 15
299 302 304 307 309 312 315 316 314 318 317 314 313 310 307 308 307 305 282 280 281 266 291 299 312 287 296 287 238 222 226 239 251 252 247 261 255 289 243 252 298 147 233 311 289 317 288 296 334 348 358 6 28 25
298 301 304 308 311 312 315 314 314 317 316 313 311 307 308 323 321 311 288 293 278 247 298 305 301 302 307 223 224 239 218 236 222 232 254 260 248 179 280 259 171 194 252 246 269 314 319 336 340 1 16 28 53 59
296 299 303 306 309 314 318 315 313 318 319 317 316 313 328 312 297 277 271 298 308 212 267 291 280 287 312 249 210 214 221 217 223 244 227 243 253 168 267 267 195 225 176 221 329 338 323 1 354 29 47 64 80 83
295 295 298 303 306 315 319 316 316 320 320 320 330 325 317 302 294 298 303 290 273 215 247 272 276 287 327 220 209 211 208 223 227 227 249 233 137 183 269 249 181 123 129 48 357 7 346 37 38 61 74 88 88 89
293 292 296 302 305 311 318 320 322 329 339 328 321 312 301 299 299 300 293 290 246 220 265 253 275 295 299 10 319 224 213 211 241 218 235 220 191 213 239 66 80 67 112 127 25 14 56 95 74 83 100 99 97 97
289 289 296 299 305 309 316 320 316 340 338 341 318 301 296 330 317 308 296 201 195 224 236 251 240 257 303 307 288 246 196 158 229 219 209 175 139 99 94 85 96 95 112 68 201 309 42 106 105 112 107 114 115 114
282 286 289 294 303 313 316 322 311 322 339 339 306 280 307 311 299 247 242 213 201 244 224 241 230 238 264 225 260 236 232 268 273 259 160 257 103 111 121 93 87 93 89 69 35 115 124 136 133 127 127 125 127 129
278 280 283 286 296 307 317 319 302 289 274 306 292 294 291 251 233 256 237 203 210 250 202 220 239 218 262 245 229 250 203 209 247 178 91 225 119 133 130 115 75 96 100 103 75 92 110 132 143 145 138 140 134 134
274 275 276 281 289 300 311 308 297 288 285 298 273 261 246 220 238 220 217 207 232 210 268 312 24 276 239 255 263 266 289 232 203 102 201 85 128 117 132 125 116 98 120 121 112 96 125 134 139 148 143 141 139 128
271 271 271 276 286 299 301 295 294 275 295 255 245 241 225 212 232 213 240 299 313 297 314 268 240 298 338 28 311 265 228 90 257 181 97 147 135 135 138 138 136 143 117 141 140 112 133 135 142 142 143 143 139 134
272 275 272 271 285 287 285 282 270 238 244 257 250 241 236 238 260 276 286 299 337 347 338 308 344 318 254 177 253 248 197 224 44 108 136 138 142 147 145 147 144 138 124 140 146 141 142 146 141 138 142 137 131 134
269 278 272 281 272 273 263 282 263 220 236 235 240 251 271 279 281 321 321 318 321 298 342 30 313 308 227 231 236 212 237 104 157 121 133 150 145 153 155 155 149 142 135 135 150 147 149 155 148 141 157 144 145 142
267 255 272 280 269 264 268 254 221 216 231 229 232 239 258 276 279 288 290 295 318 354 27 19 281 241 262 259 259 73 88 31 131 140 147 165 156 154 154 145 142 142 140 133 137 142 140 153 156 145 155 159 153 155
249 257 231 204 209 245 252 228 229 238 242 232 239 242 247 254 269 273 281 279 282 208 165 206 295 247 281 294 10 341 3 118 160 146 154 163 156 153 152 152 150 153 153 145 138 139 147 149 154 160 154 150 162 163
253 257 256 225 218 228 225 235 218 253 237 241 239 246 248 256 261 265 276 272 264 208 183 211 243 253 238 240 322 334 80 140 163 146 157 164 154 153 151 149 149 154 159 161 161 155 147 147 145 151 157 156 164 165
250 239 223 210 214 207 218 237 224 243 252 244 243 247 251 254 259 259 253 254 220 189 190 222 219 229 276 307 310 260 178 248 194 151 159 164 164 159 156 162 165 157 158 167 173 167 161 159 169 167 168 176 173 165
244 238 219 214 230 223 244 246 237 245 254 248 257 248 250 252 246 249 254 244 218 206 227 231 250 262 260 245 251 251 204 274 215 165 159 161 174 174 174 174 174 171 175 178 185 181 181 188 182 186 187 189 185 184
220 215 197 201 201 212 243 235 243 278 272 270 289 282 270 255 245 241 238 227 230 235 234 235 243 244 241 248 276 239 263 71 149 170 165 167 171 185 186 185 185 192 195 197 195 189 193 198 196 191 206 201 192 185
191 193 158 146 170 211 253 229 225 235 242 258 263 302 248 245 247 236 242 234 238 236 240 241 235 232 224 229 245 233 213 222 179 167 178 179 179 185 187 188 189 189 191 195 200 199 195 195 202 200 197 200 205 206
160 153 157 183 197 235 233 219 224 243 234 229 240 258 263 243 229 194 241 248 244 236 226 232 236 238 222 198 216 190 208 196 227 155 184 183 177 183 188 194 200 201 202 201 194 202 204 198 191 190 197 195 198 214
133 185 207 200 206 224 233 208 205 227 235 235 234 233 256 286 233 211 227 250 239 219 214 219 215 219 220 202 219 223 197 206 184 184 188 178 177 184 189 192 197 203 197 193 186 192 194 198 202 200 197 201 199 196
204 201 197 202 217 210 213 241 251 232 232 246 246 263 268 214 250 250 271 337 259 199 200 186 199 218 207 192 147 173 167 195 184 187 186 196 189 187 190 191 194 193 199 204 193 192 198 200 206 205 196 202 202 201
236 238 206 218 231 263 266 284 272 275 236 225 221 196 241 235 245 44 325 257 98 134 170 185 217 179 122 158 156 172 164 175 122 198 182 185 198 209 204 200 192 193 193 199 199 199 202 203 207 190 196 203 199 197
251 280 235 255 233 220 241 258 210 224 241 210 223 246 239 271 34 160 110 160 105 108 104 128 89 107 140 179 155 130 115 166 189 165 145 124 127 150 177 190 208 202 198 202 202 199 205 207 202 188 198 203 204 201
243 254 272 265 247 231 223 231 224 224 220 210 226 280 253 60 44 67 64 66 87 107 188 187 153 166 177 147 156 133 176 267 167 129 156 195 213 185 189 188 203 204 200 197 202 203 205 203 197 190 196 200 208 202
242 221 232 254 227 257 259 255 273 274 279 260 82 44 94 65 48 60 106 48 21 23 99 111 102 124 135 133 138 163 132 147 161 152 163 187 231 244 230 217 214 210 201 199 198 195 194 192 184 190 195 204 212 220
223 189 242 220 234 233 234 229 237 245 231 214 128 92 77 98 71 55 51 22 12 261 125 112 131 158 149 146 133 136 120 117 117 126 137 119 90 207 242 230 234 214 209 197 193 197 193 191 190 198 206 210 216 216
188 231 254 259 261 191 232 264 97 92 78 68 52 43 29 25 70 51 22 23 28 89 152 130 174 169 169 125 132 133 139 131 118 85 331 309 281 267 241 220 238 230 204 197 180 196 200 196 206 202 214 217 222 232
216 229 201 209 238 184 241 236 118 95 59 48 33 19 21 19 53 21 40 16 20 60 109 99 98 108 122 124 110 117 132 111 73 52 44 39 34 39 93 180 205 190 182 186 186 189 200 225 206 213 230 224 224 226